Terug naar catalogus

EXPRESS 2A

ActiefCommunicatieGEO
NORAD 26098·PAYLOAD·🇷🇺 Russia

Gelanceerd Mar 12, 2000 vanaf Baikonur Cosmodrome

Loading…

TLE

VersSource: Space-Track

Epoch: Sep 14, 2026, 13:01 UTC

1 26098U 00013A   26257.54273074 -.00000142  00000-0  00000-0 0  9991
2 26098  13.2273  22.6680 0005409  58.4467 304.5484  0.98257506 96264

Volg EXPRESS 2A in realtime met AllMySat

Download on the App Store